This demonstration page uses our WeatherBlox Daily Observations layout. Learn more.

36.17497, -115.13722

Hourly Observations for April 7, 2018

Temp ( °F °C ) Dew Point ( °F °C ) Humidity (%) Winds ( mph kmh ) Pressure ( in mb ) Visibility ( mi km ) Precip ( " mm )
12:53 am 00:53 Clear 73 22.8 47 8.3 40 40 SSE 5 7 29.77 1008 10 16.09344 0 0
1:53 am 01:53 Clear 73 22.8 47 8.3 40 40 Calm 29.77 1008 10 16.09344 0 0
2:53 am 02:53 Clear 70 21.1 47 8.3 44 44 Calm 29.77 1008 10 16.09344 0 0
3:53 am 03:53 Clear 68 20 45 7.2 44 44 N 5 7 29.77 1008 10 16.09344 0 0
4:53 am 04:53 Clear 67 19.4 46 7.8 47 47 NW 3 6 29.77 1008 10 16.09344 0 0
5:53 am 05:53 Clear 65 18.3 45 7.2 49 49 Calm 29.77 1008 10 16.09344 0 0
6:53 am 06:53 Sunny 65 18.3 45 7.2 49 49 Calm 29.8 1009 10 16.09344 0 0
7:53 am 07:53 Sunny 66 18.9 47 8.3 50 50 ENE 8 13 29.8 1009 10 16.09344 0 0
8:53 am 08:53 Sunny 70 21.1 48 8.9 46 46 SSE 7 11 29.8 1009 10 16.09344 0 0
9:53 am 09:53 Sunny 75 23.9 49 9.4 40 40 SE 13 20 29.77 1008 10 16.09344 0 0
10:53 am 10:53 Sunny 83 28.3 50 10 32 32 SW 18 30 29.71 1006 10 16.09344 0 0
11:00 am 11:00 Sunny 83 28.3 50 10 32 32 SW 23 37 29.59 1002 10 16.09344 0 0
11:53 am 11:53 Sunny 84 28.9 51 10.6 32 32 W 15 24 29.71 1006 10 16.09344 0 0
12:53 pm 12:53 Sunny 88 31.1 51 10.6 28 28 WSW 23 37 29.65 1004 10 16.09344 0 0
1:53 pm 13:53 Sunny 90 32.2 50 10 25 25 WSW 29 46 29.62 1003 10 16.09344 0 0
2:53 pm 14:53 Sunny 92 33.3 50 10 24 24 WSW 29 46 29.59 1002 10 16.09344 0 0
3:53 pm 15:53 Partly Cloudy 89 31.7 49 9.4 25 25 SW 22 35 29.62 1003 10 16.09344 0 0
4:53 pm 16:53 Mostly Sunny 89 31.7 50 10 26 26 WSW 22 35 29.62 1003 10 16.09344 0 0
5:21 pm 17:21 Partly Cloudy 86 30 52 11.1 31 31 N 13 20 29.5 999 10 16.09344 0 0
5:53 pm 17:53 Mostly Cloudy 87 30.6 52 11.1 30 30 WNW 5 7 29.62 1003 10 16.09344 0 0
6:53 pm 18:53 Sunny 84 28.9 45 7.2 25 25 W 14 22 29.62 1003 10 16.09344 0 0
7:02 pm 19:02 Sunny 83 28.3 45 7.2 26 26 WSW 16 26 29.53 1000 10 16.09344 0 0
7:30 pm 19:30 Clear with Thunderstorms 82 27.8 45 7.2 27 27 W 21 33 29.53 1000 10 16.09344 0 0
7:53 pm 19:53 Clear with Nearby Thunderstorms 82 27.8 43 6.1 25 25 W 16 26 29.62 1003 10 16.09344 0 0
8:02 pm 20:02 Clear 81 27.2 43 6.1 26 26 W 21 33 29.53 1000 10 16.09344 0 0
8:53 pm 20:53 Clear 80 26.7 37 2.8 21 21 W 12 19 29.65 1004 10 16.09344 0 0
9:53 pm 21:53 Clear 78 25.6 28 -2.2 16 16 WSW 14 22 29.65 1004 10 16.09344 0 0
10:53 pm 22:53 Clear 77 25 26 -3.3 15 15 W 9 15 29.68 1005 10 16.09344 0 0
11:53 pm 23:53 Clear 76 24.4 38 3.3 25 25 NNW 15 24 29.71 1006 10 16.09344 0 0

Powered by AerisWeather